This is the latest recevied weather packets stored in our database for station/object HB9EYW-6. If no packets are shown the sender has not sent any weather packets the latest 1 day(s).
| Time | Temp. | Humidity | Pressure | Rain* | Wind** | Luminosity | Snow |
|---|---|---|---|---|---|---|---|
| 1778006104 | 16.67° C | 53% | 0 hPa | 0 mm | 0 m/s | - | - |
| 1778005804 | 16.67° C | 50% | 0 hPa | 0 mm | 0 m/s | - | - |
| 1778005504 | 17.22° C | 49% | 0 hPa | 0 mm | 0 m/s | - | - |
| 1778005204 | 18.33° C | 48% | 0 hPa | 0 mm | 0 m/s | - | - |
| 1778004904 | 18.33° C | 49% | 0 hPa | 0 mm | 0 m/s | - | - |
| 1778004604 | 18.33° C | 52% | 0 hPa | 0 mm | 0 m/s | - | - |
| 1778004304 | 17.22° C | 54% | 0 hPa | 0 mm | 0 m/s | - | - |
| 1778004004 | 17.22° C | 54% | 0 hPa | 0 mm | 0 m/s | - | - |
| 1778003704 | 16.67° C | 54% | 0 hPa | 0 mm | 0 m/s | - | - |
| 1778003404 | 16.67° C | 54% | 0 hPa | 0 mm | 0 m/s | - | - |
| 1778003104 | 16.67° C | 53% | 0 hPa | 0 mm | 0 m/s | - | - |
| 1778002804 | 16.67° C | 52% | 0 hPa | 0 mm | 0.89 m/s, 261° | - | - |
| 1778002504 | 17.22° C | 55% | 0 hPa | 0 mm | 0.45 m/s, 208° | - | - |
| 1778002204 | 17.78° C | 57% | 0 hPa | 0 mm | 0.45 m/s, 242° | - | - |
| 1778001904 | 17.78° C | 57% | 0 hPa | 0 mm | 0 m/s | - | - |
| 1778001604 | 17.78° C | 57% | 0 hPa | 0 mm | 0 m/s | - | - |
| 1778001304 | 17.78° C | 57% | 0 hPa | 0 mm | 0 m/s | - | - |
| 1778001004 | 17.78° C | 56% | 0 hPa | 0 mm | 0 m/s | - | - |
| 1778000704 | 18.33° C | 55% | 0 hPa | 0 mm | 0 m/s | - | - |
| 1778000404 | 18.33° C | 55% | 0 hPa | 0 mm | 0 m/s | - | - |
| 1778000104 | 18.33° C | 54% | 0 hPa | 0 mm | 0 m/s | - | - |
| 1777999804 | 18.89° C | 54% | 0 hPa | 0 mm | 0 m/s | - | - |
| 1777999504 | 18.89° C | 53% | 0 hPa | 0 mm | 0 m/s | - | - |
| 1777999204 | 18.89° C | 52% | 0 hPa | 0 mm | 0 m/s | - | - |
| 1777998904 | 18.89° C | 51% | 0 hPa | 0 mm | 0 m/s | - | - |
* Rain latest hour (hover to see other rain measurements)
** Current wind speed in m/s (hover to see current wind gust speed)